TOURFACTS.DK  
Stats and Facts from Tour de France.

Tour de France 2019 starts in 324 days
  Riders   Stages   Teams   Summits   Yearly  


 
Search by year

After 2018 - Stage 21:
 15000 starters.
  5165 different riders.
  638 teams.
  2253 stages.
  456 restdays.
  442940.60 km.
  5684 abandonnees.


Top 3
GC
Geraint Thomas83:17:13
Tom Dumoulin83:19:04
Christopher Froome83:19:37
Climb
Julian Alaphilippe170 pt.
Warren Barguil91 pt.
Rafal Majka76 pt.
Sprint
Peter Sagan477 pt.
Alexander Kristoff246 pt.
Arnaud Démare203 pt.
Youth
Pierre-Roger Latou..83:39:26
Egan Bernal83:45:05
Guillaume Martin84:01:31
Facts from Tour de France 1975
  |   Stages.  |   Stage winners.  |   Days in yellow  |   Average speed.  |   Route.  |   Teams.  |   All riders.  |   Rookies.  |  

  |   Withdrawls.  |   GC.  |   Polka  |   Green  |   White  |   Summits. (In tour)  |   Miscellaneous.  |  

Stage 15 on 13 - 07 - 1975
         Owning:    Bernard Thevenet    
Pick a stage:  Pro 1a 1b 2 3 4 5 6 7 8 9a 9b 10 11 12 13 14 15 16 17 18 19 20 21 22
  NicePra-Loup | Dist: 217.50 km.
Cat: 2Col de la CouilloleBELLucien Van Impe15 points 
Cat: 1Col des ChampsBELEddy Merckx20 points 
Cat: 1Col d'AllosBELEddy Merckx20 points 
Cat: 2Pra LoupFRABernard Thevenet15 points 

Average speed for all riders in stage:  26,611 km./hr.
    Place:Name:Team:Time:Km/h:
1
FRABernard ThevenetFRAPeugeot-BP-Michelin07:46:35  +  00:00:00=27,969 
2
ITAFelice GimondiITABianchi-Campagnolo07:46:38  +  00:00:03=27,966 
3
NEDJoop ZoetemelkFRAGan-Mercier-Hutchinson07:47:47  +  00:01:12=27,898 
44 BELLucien Van ImpeFRAGitane-Campagnolo07:46:35  +  00:00:00=27,969 
55 BELEddy MerckxITAMolteni07:48:31  +  00:01:56=27,854 
66 ITAFrancesco MoserITAFilotex07:49:47  +  00:03:12=27,779 
77 SUIJosef FuchsITAFilotex07:49:47  +  00:03:12=27,779 
88 ESPLuis BalagueESPSuper Ser07:52:01  +  00:05:26=27,647 
99 FRARaymond DelisleFRAPeugeot-BP-Michelin07:52:36  +  00:06:01=27,613 
1010 ESPVicente LopezESPKas-Kaskol07:52:51  +  00:06:16=27,599 
1111 ESPAndré RomeroFRAJobo-Wolber07:52:55  +  00:06:20=27,595 
1212 BELEduard JanssensITAMolteni07:53:07  +  00:06:32=27,583 
1313 ESPAntonio MenendezESPKas-Kaskol07:53:18  +  00:06:43=27,572 
1414 FRAPatrick PerretBELMiko-De Gribaldy07:54:32  +  00:07:57=27,501 
1515 PORJoaquim AgostinhoPRTSporting-Sottomayor07:54:43  +  00:08:08=27,490 
1616 FRAGeorges TalbourdetFRAGan-Mercier-Hutchinson07:55:51  +  00:09:16=27,425 
1717 BELJos De SchoenmaeckerITAMolteni07:55:58  +  00:09:23=27,418 
1818 ESPMariano MartinezFRAGitane-Campagnolo07:57:54  +  00:11:19=27,307 
1919 ESPPedro TorresESPSuper Ser07:58:01  +  00:11:26=27,300 
2020 COLMartìn RodríguezITABianchi-Campagnolo07:58:32  +  00:11:57=27,271 
2121 FRAFerdinand JulienPRTSporting-Sottomayor07:58:32  +  00:11:57=27,271 
2222 FRARaymond PoulidorFRAGan-Mercier-Hutchinson07:58:42  +  00:12:07=27,261 
2323 NEDHennie KuiperNLDFrisol-G.B.C.07:58:58  +  00:12:23=27,246 
2424 ESPJosé-Luis ViejoESPSuper Ser07:59:22  +  00:12:47=27,223 
2525 ITAArnaldo CaverzasiITAFilotex08:00:25  +  00:13:50=27,164 
2626 ESPSantiago LazcanoESPSuper Ser08:01:12  +  00:14:37=27,120 
2727 ITASimone FraccaroITABianchi-Campagnolo08:01:17  +  00:14:42=27,115 
2828 FRARaymond MartinFRAGitane-Campagnolo08:01:31  +  00:14:56=27,102 
2929 ESPCarlos MeleroESPKas-Kaskol08:01:31  +  00:14:56=27,102 
3030 NEDFedor Iwan Den HertogNLDFrisol-G.B.C.08:02:31  +  00:15:56=27,046 
3131 BELJoseph SpruytITAMolteni08:03:48  +  00:17:13=26,974 
3232 FRAJean-Pierre DanguillaumeFRAPeugeot-BP-Michelin08:03:56  +  00:17:21=26,967 
3333 FRARégis OvionFRAPeugeot-BP-Michelin08:04:34  +  00:17:59=26,931 
3434 BELAlbert Van VlierbergheBELMiko-De Gribaldy08:09:03  +  00:22:28=26,684 
3535 BELWalter GodefrootBELCarpenter Confortluxe-Flandria08:13:53  +  00:27:18=26,423 
3636 FRACharly RouxelFRAPeugeot-BP-Michelin08:13:53  +  00:27:18=26,423 
3737 BELRonald De WitteBELCarpenter Confortluxe-Flandria08:13:53  +  00:27:18=26,423 
3838 DENOle RitterITAFilotex08:13:53  +  00:27:18=26,423 
3939 NEDGerben KarstensFRAGitane-Campagnolo08:13:53  +  00:27:18=26,423 
4040 BELMarc DemeyerBELCarpenter Confortluxe-Flandria08:13:53  +  00:27:18=26,423 
4141 FRAJean-Pierre GenetFRAGan-Mercier-Hutchinson08:13:53  +  00:27:18=26,423 
4242 ESPJosé CasasESPSuper Ser08:13:53  +  00:27:18=26,423 
4343 FRAMichel PerinFRAGan-Mercier-Hutchinson08:13:53  +  00:27:18=26,423 
4444 BELJoseph HuysmansITAMolteni08:13:53  +  00:27:18=26,423 
4545 BELWilly TeirlinckFRAGitane-Campagnolo08:17:52  +  00:31:17=26,212 
4646 FRARoger LegeayFRAJobo-Wolber08:17:52  +  00:31:17=26,212 
4747 MARAntoine GutierrezBELMiko-De Gribaldy08:17:52  +  00:31:17=26,212 
4848 PORFernando FerreiraPRTSporting-Sottomayor08:17:52  +  00:31:17=26,212 
4949 ITAGiacinto SantambrogioITABianchi-Campagnolo08:17:52  +  00:31:17=26,212 
5050 BELMichel PollentierBELCarpenter Confortluxe-Flandria08:17:52  +  00:31:17=26,212 
5151 BELMarc LievensITAMolteni08:17:52  +  00:31:17=26,212 
5252 NEDGerrie KnetemannFRAGan-Mercier-Hutchinson08:17:52  +  00:31:17=26,212 
5353 BELTony HoubrechtsITABianchi-Campagnolo08:17:52  +  00:31:17=26,212 
5454 FRARichard PianaroFRAJobo-Wolber08:17:52  +  00:31:17=26,212 
5555 BELRik Van LindenITABianchi-Campagnolo08:17:52  +  00:31:17=26,212 
5656 FRARobert MintkiewiczFRAGitane-Campagnolo08:17:52  +  00:31:17=26,212 
5757 ITARoberto PoggialiITAFilotex08:17:52  +  00:31:17=26,212 
5858 FRABernard BourreauFRAPeugeot-BP-Michelin08:17:52  +  00:31:17=26,212 
5959 BELFrans Van VlierbergheBELMiko-De Gribaldy08:17:52  +  00:31:17=26,212 
6060 ITARenato MarchettiITAFilotex08:17:52  +  00:31:17=26,212 
6161 BELFrans MintjensITAMolteni08:17:52  +  00:31:17=26,212 
6262 BELHerman BeysensITAMolteni08:17:52  +  00:31:17=26,212 
6363 ESPJosé GrandeESPKas-Kaskol08:17:52  +  00:31:17=26,212 
6464 FRAGuy LeleuFRAGitane-Campagnolo08:17:52  +  00:31:17=26,212 
6565 BELKarel RottiersITAMolteni08:17:52  +  00:31:17=26,212 
6666 ESPFrancisco GaldosESPKas-Kaskol08:17:52  +  00:31:17=26,212 
6767 FRAMaurice Le GuillouxFRAGitane-Campagnolo08:17:52  +  00:31:17=26,212 
6868 BELLudo DelcroixITAMolteni08:17:52  +  00:31:17=26,212 
6969 ESPJosé PesarrodonaESPKas-Kaskol08:17:52  +  00:31:17=26,212 
7070 ITAFabrizio FabbriITABianchi-Campagnolo08:17:52  +  00:31:17=26,212 
7171 ITAPietro DallaiITAFilotex08:17:52  +  00:31:17=26,212 
7272 FRAFrancis CampanerPRTSporting-Sottomayor08:17:52  +  00:31:17=26,212 
7373 BELHerman Van SpringelBELCarpenter Confortluxe-Flandria08:17:52  +  00:31:17=26,212 
7474 FRAClaude MagniFRAJobo-Wolber08:17:52  +  00:31:17=26,212 
7575 BELJosé De CauwerNLDFrisol-G.B.C.08:17:52  +  00:31:17=26,212 
7676 FRASylvain VasseurESPSuper Ser08:17:52  +  00:31:17=26,212 
7777 FRAHubert MathisBELMiko-De Gribaldy08:17:52  +  00:31:17=26,212 
7878 FRARegis DelepineBELCarpenter Confortluxe-Flandria08:17:52  +  00:31:17=26,212 
7979 ITAMauro SimonettiITAFilotex08:17:52  +  00:31:17=26,212 
8080 NEDGerard VianenFRAGan-Mercier-Hutchinson08:17:52  +  00:31:17=26,212 
8181 ITASigfrido FontanelliITAFilotex08:17:52  +  00:31:17=26,212 
8282 BELAndre DoyenBELMiko-De Gribaldy08:17:52  +  00:31:17=26,212 
8383 ITAGiovanni CavalcantiITABianchi-Campagnolo08:17:52  +  00:31:17=26,212 
8484 FRAYves HézardFRAGan-Mercier-Hutchinson08:17:52  +  00:31:17=26,212 
8585 FRAGuy SibilleFRAPeugeot-BP-Michelin08:17:52  +  00:31:17=26,212 
8686 FRAGerard MoneyronBELCarpenter Confortluxe-Flandria08:17:52  +  00:31:17=26,212 
8787 ITALuigi CastellettiITABianchi-Campagnolo08:17:52  +  00:31:17=26,212 
8888 FRASerge ParsaniITABianchi-Campagnolo08:17:52  +  00:31:17=26,212 
8989 NEDHenk PrinsenNLDFrisol-G.B.C.08:17:52  +  00:31:17=26,212 
9090 FRAPatrick BeonFRAPeugeot-BP-Michelin08:18:18  +  00:31:43=26,189 
9191 FRAJoël MillardFRAJobo-Wolber08:20:14  +  00:33:39=26,088 
9292 FRAJoel HauvieuxFRAJobo-Wolber08:20:22  +  00:33:47=26,081 
9393 ENGBarry HobanFRAGan-Mercier-Hutchinson08:20:22  +  00:33:47=26,081 
9494 FRAJean-Claude MisacFRAGan-Mercier-Hutchinson08:21:05  +  00:34:30=26,044 
9595 AUSDonald AllanNLDFrisol-G.B.C.08:21:09  +  00:34:34=26,040 
9696 NEDGerard KamperNLDFrisol-G.B.C.08:21:13  +  00:34:38=26,037 
9797 BELRené DillenFRAGitane-Campagnolo08:21:15  +  00:34:40=26,035 
9898 FRAJacques BoulasFRAJobo-Wolber08:21:50  +  00:35:15=26,005 
9999 PORJosé AmaroPRTSporting-Sottomayor08:24:10  +  00:37:35=25,884 

Withdrawls: 8
 
Rider
Team
Reason
32  ITAAlessio AntoniniITAJollyceramicaDid not start
36  ITAPierino GavazziITAJollyceramicaDid not start
37  ITADonato GiulianiITAJollyceramicaDid not start
40  ITASandro QuintarelliITAJollyceramicaDid not start
54  FRAJosé CatieauFRAPeugeot-BP-MichelinDid not finish
79  FRAAlain SantyFRAGitane-CampagnoloDid not finish
109  FRAAndré MolletPRTSporting-SottomayorDid not finish
115  BELRoger LoyschBELMiko-De GribaldyDid not finish
Todays birthdays.

1883  Albert Niepçeron
1911  Camille Leroy
1914  Gaston Grimbert
1940  José Momeñe
1956  Régis Clère
1957  Alfonso Dal Pian
1960  Samuel Cabrera
1967  Christophe Capelle
1976  Dimitiri Fofonov
1980  Giampaolo Caruso
1983  Jean-Marc Marino




Visits: